Weather Roundup
Issued by NWS

Home | Current Version | Previous Version | Text Only | Print | Product List | Glossary On
Versions: 1 2 3 4 5 6 7 8 9 10 11 12 13 14 15 16 17 18 19 20 21 22 23 24 25 26 27 28 29 30 31 32 33 34 35 36 37 38 39 40 41 42 43 44 45 46 47 48 49 50
000
NZUS93 KARX 301810
HRRWXR

CURRENT HOURLY OBSERVATIONS ACROSS
MUCH OF THE UPPER MISSISSIPPI VALLEY
NATIONAL WEATHER SERVICE LA CROSSE WI
100 PM CDT THU OCT 30 2014


...SOUTHEAST MINNESOTA...


CITY           SKY/WX    TMP DP  RH WIND       PRES   REMARKS
ROCHESTER      CLOUDY    46  37  71 CALM      30.08S
ROCHESTER/MAYO CLOUDY    45  36  71 CALM      30.07S
WINONA         MIX PCPN  43  36  75 CALM      30.09S
AUSTIN         CLOUDY    46  37  71 CALM      30.07S
ALBERT LEA     PTSUNNY   48  37  66 CALM      30.06F
DODGE CENTER   CLOUDY    46  37  71 CALM      30.07S
PRESTON        CLOUDY    43  35  74 CALM      30.08S
OWATONNA       MOSUNNY   48  37  66 CALM      30.08S
FARIBAULT      CLOUDY    45  39  81 CALM      30.08F
$$

...ELSEWHERE IN MINNESOTA...


CITY           SKY/WX    TMP DP  RH WIND       PRES   REMARKS
MINNEAPOLIS    CLOUDY    46  36  68 NW6       30.10S
INTNL FALLS    CLOUDY    37  33  85 NW8       30.13S WCI  31
DULUTH         CLOUDY    40  31  70 NW9       30.08S WCI  34
RED WING       CLOUDY    46  36  66 CALM      30.08F
REDWOOD FALLS  CLOUDY    49  39  68 N8        30.12R
MANKATO        CLOUDY    46  36  66 N9        30.09R
WORTHINGTON    PTSUNNY   54  36  50 N16G22    30.09R
FAIRMONT       CLOUDY    52  21  30 N13       30.07R
$$

...SOUTHWEST WISCONSIN...


CITY           SKY/WX    TMP DP  RH WIND       PRES   REMARKS
LA CROSSE      CLOUDY    46  36  68 CALM      30.09S
PRAIRIE DU CHI CLOUDY    47  36  65 CALM      30.08F
BOSCOBEL       CLOUDY    49  37  63 CALM      30.09F
LONE ROCK      CLOUDY    51  36  56 CALM      30.08F
PLATTEVILLE    CLOUDY    49  37  63 SW5       30.08F
FORT MC COY    CLOUDY    45  35  69 CALM      30.09F
CAMP DOUGLAS   CLOUDY    46  39  76 VRB7      30.07F
VIROQUA        CLOUDY    44  36  73 W5        30.07F
WIS DELLS      CLOUDY    46  34  62 SW6       30.07F
$$

...ELSEWHERE IN WISCONSIN...


CITY           SKY/WX    TMP DP  RH WIND       PRES   REMARKS
MILWAUKEE      PTSUNNY   50  33  52 W8        30.08F
MADISON        PTSUNNY   51  36  56 SW6       30.07F
GREEN BAY      CLOUDY    46  35  65 W12       30.06F
EAU CLAIRE     CLOUDY    48  35  60 VRB3      30.07F
BLACK RVR FLS  CLOUDY    45  35  67 CALM      30.07F
MEDFORD        CLOUDY    41  33  73 W8        30.05F
WAUSAU         PTSUNNY   42  34  73 W5        30.04F
WIS RAPIDS     MOSUNNY   48  35  60 VRB3      30.07F
MARSHFIELD     CLOUDY    47  35  63 NW8       30.05F
RICE LAKE      CLOUDY    44  33  65 W7        30.10S
$$

...NORTHEAST IOWA...


CITY           SKY/WX    TMP DP  RH WIND       PRES   REMARKS
DECORAH        CLOUDY    45  37  76 CALM      30.07S
MASON CITY     CLOUDY    50  37  61 CALM      30.06S
CHARLES CITY   CLOUDY    50  37  62 CALM      30.06F
OELWEIN        PTSUNNY   50  37  62 S5        30.07S
$$

...ELSEWHERE IN IOWA...


CITY           SKY/WX    TMP DP  RH WIND       PRES   REMARKS
DES MOINES     MOSUNNY   59  37  44 VRB3      30.01F
IOWA CITY      CLOUDY    50  39  66 SE8       30.06F
FORT DODGE     MOSUNNY   52  37  58 W5        30.05S
$$

...NORTHERN ILLINOIS...


CITY           SKY/WX    TMP DP  RH WIND       PRES   REMARKS
CHICAGO-OHARE  CLOUDY    49  34  56 SW12G18   30.09F
CHICAGO-MIDWAY CLOUDY    51  35  54 SW10      30.10F
MOLINE         CLOUDY    49  37  63 SE8       30.07F
ROCKFORD       CLOUDY    52  35  52 VRB3      30.10F
PEORIA         CLOUDY    50  38  63 SE3       30.09F
$$

NOTE: "FAIR" INDICATES FEW OR NO CLOUDS BELOW 12,000 FEET WITH NO
SIGNIFICANT WEATHER AND/OR OBSTRUCTIONS TO VISIBILITY. WIND
SPEEDS ARE IN MILES-PER-HOUR.



USA.gov is the U.S. government's official web portal to all federal, state and local government web resources and services.